When you browse on this site, cookies collect data to enhance your experience and personalize the content and advertising you see.
Visit our Privacy Policy to learn more. By continuing to use the site, you agree to this use of cookies and data.
  • In Switzerland
  • List of Countries
  • For 7 days
  • Water Temperature
  • Weather Map
  • Weather Widgets
  • user-avatar
    Login

    Hourly Weather Reshety

    Today, 25 August, Sunday

    Time Temperature Precipitation Wind Pressure Humidity
    00:00 +14°C° 0 mm 1 mps 764 mmHg 86%
    01:00 +13°C° 0 mm 1 mps 764 mmHg 87%
    02:00 +12°C° 0 mm 1 mps 764 mmHg 88%
    03:00 +12°C° 0 mm 1 mps 765 mmHg 89%
    04:00 +10°C° 0 mm 0 mps 765 mmHg 90%
    05:00 +10°C° 0 mm 0 mps 765 mmHg 92%
    06:00 +12°C° 0 mm 0 mps 765 mmHg 85%
    07:00 +14°C° 0 mm 0 mps 765 mmHg 79%
    08:00 +18°C° 0 mm 1 mps 766 mmHg 71%
    09:00 +19°C° 0 mm 1 mps 765 mmHg 66%
    10:00 +21°C° 0 mm 1 mps 765 mmHg 61%
    11:00 +22°C° 0 mm 1 mps 765 mmHg 55%
    12:00 +21°C° 0 mm 0 mps 765 mmHg 53%
    13:00 +21°C° 0 mm 0 mps 765 mmHg 52%
    14:00 +22°C° 0 mm 0 mps 765 mmHg 50%
    15:00 +21°C° 0 mm 0 mps 765 mmHg 52%
    16:00 +21°C° 0 mm 0 mps 765 mmHg 55%
    17:00 +20°C° 0 mm 0 mps 764 mmHg 58%
    18:00 +18°C° 0 mm 0 mps 765 mmHg 63%
    19:00 +18°C° 0 mm 1 mps 765 mmHg 69%
    20:00 +16°C° 0 mm 1 mps 765 mmHg 74%
    21:00 +15°C° 0 mm 1 mps 765 mmHg 77%
    22:00 +14°C° 0 mm 1 mps 765 mmHg 79%
    23:00 +14°C° 0 mm 1 mps 765 mmHg 81%

    Tomorrow, 26 August, Monday

    Time Temperature Precipitation Wind Pressure Humidity
    00:00 +13°C° 0 mm 1 mps 765 mmHg 84%
    01:00 +13°C° 0 mm 1 mps 765 mmHg 86%
    02:00 +13°C° 0 mm 1 mps 765 mmHg 88%
    03:00 +12°C° 0 mm 1 mps 765 mmHg 90%
    04:00 +12°C° 0 mm 1 mps 764 mmHg 92%
    05:00 +12°C° 0 mm 1 mps 764 mmHg 93%
    06:00 +14°C° 0 mm 1 mps 764 mmHg 88%
    07:00 +16°C° 0 mm 2 mps 764 mmHg 82%
    08:00 +17°C° 0 mm 2 mps 764 mmHg 77%
    09:00 +19°C° 0 mm 2 mps 764 mmHg 70%
    10:00 +21°C° 0 mm 2 mps 763 mmHg 64%
    11:00 +24°C° 0 mm 2 mps 763 mmHg 58%
    12:00 +24°C° 0 mm 2 mps 763 mmHg 57%
    13:00 +25°C° 0 mm 3 mps 763 mmHg 56%
    14:00 +26°C° 0 mm 3 mps 762 mmHg 55%
    15:00 +25°C° 0 mm 3 mps 762 mmHg 60%
    16:00 +25°C° 0 mm 2 mps 762 mmHg 66%
    17:00 +24°C° 0 mm 2 mps 761 mmHg 71%
    18:00 +23°C° 0 mm 2 mps 761 mmHg 76%
    19:00 +20°C° 0 mm 2 mps 761 mmHg 81%
    20:00 +19°C° 0 mm 2 mps 761 mmHg 86%
    21:00 +18°C° 0 mm 2 mps 761 mmHg 86%
    22:00 +17°C° 0 mm 2 mps 761 mmHg 86%
    23:00 +16°C° 0 mm 2 mps 761 mmHg 87%

    Day after tomorrow, 27 August, Tuesday

    Time Temperature Precipitation Wind Pressure Humidity
    00:00 +16°C° 0 mm 2 mps 762 mmHg 89%
    01:00 +15°C° 0 mm 2 mps 762 mmHg 91%
    02:00 +15°C° 0 mm 2 mps 762 mmHg 93%
    03:00 +14°C° 0 mm 2 mps 762 mmHg 94%
    04:00 +14°C° 0 mm 1 mps 762 mmHg 95%
    05:00 +14°C° 0 mm 1 mps 762 mmHg 97%
    06:00 +15°C° 0 mm 2 mps 762 mmHg 92%
    07:00 +17°C° 0 mm 2 mps 762 mmHg 88%
    08:00 +18°C° 0 mm 2 mps 762 mmHg 84%
    09:00 +20°C° 0 mm 2 mps 762 mmHg 77%
    10:00 +21°C° 0 mm 2 mps 762 mmHg 70%
    11:00 +24°C° 0 mm 2 mps 762 mmHg 64%
    12:00 +24°C° 0 mm 3 mps 763 mmHg 61%
    13:00 +25°C° 0 mm 3 mps 763 mmHg 58%
    14:00 +25°C° 0 mm 3 mps 763 mmHg 55%
    15:00 +25°C° 0 mm 3 mps 763 mmHg 57%
    16:00 +24°C° 0 mm 3 mps 762 mmHg 59%
    17:00 +24°C° 0 mm 2 mps 762 mmHg 61%
    18:00 +21°C° 0 mm 2 mps 762 mmHg 66%
    19:00 +19°C° 0 mm 2 mps 763 mmHg 71%
    20:00 +18°C° 0 mm 1 mps 763 mmHg 77%
    21:00 +16°C° 0 mm 1 mps 763 mmHg 78%
    22:00 +15°C° 0 mm 1 mps 763 mmHg 80%
    23:00 +14°C° 0 mm 1 mps 764 mmHg 82%

    28 August, Wednesday

    Time Temperature Precipitation Wind Pressure Humidity
    00:00 +14°C° 0 mm 1 mps 764 mmHg 83%
    01:00 +13°C° 0 mm 1 mps 764 mmHg 84%
    02:00 +13°C° 0 mm 1 mps 764 mmHg 85%
    03:00 +13°C° 0 mm 1 mps 764 mmHg 87%
    04:00 +12°C° 0 mm 1 mps 764 mmHg 89%
    05:00 +12°C° 0 mm 1 mps 764 mmHg 91%
    06:00 +14°C° 0 mm 1 mps 765 mmHg 85%
    07:00 +15°C° 0 mm 2 mps 765 mmHg 79%
    08:00 +17°C° 0 mm 2 mps 765 mmHg 73%
    09:00 +18°C° 0 mm 2 mps 765 mmHg 67%
    10:00 +20°C° 0 mm 2 mps 765 mmHg 61%
    11:00 +21°C° 0 mm 2 mps 765 mmHg 55%
    12:00 +21°C° 0 mm 2 mps 765 mmHg 53%
    13:00 +23°C° 0 mm 2 mps 764 mmHg 52%
    14:00 +23°C° 0 mm 2 mps 764 mmHg 50%
    15:00 +23°C° 0 mm 2 mps 764 mmHg 53%
    16:00 +21°C° 0 mm 2 mps 764 mmHg 56%
    17:00 +21°C° 0 mm 2 mps 764 mmHg 59%
    18:00 +19°C° 0 mm 2 mps 764 mmHg 65%
    19:00 +17°C° 0 mm 2 mps 764 mmHg 70%
    20:00 +15°C° 0 mm 2 mps 764 mmHg 76%
    21:00 +14°C° 0 mm 2 mps 764 mmHg 76%
    22:00 +13°C° 0 mm 2 mps 764 mmHg 76%
    23:00 +12°C° 0 mm 2 mps 765 mmHg 77%

    29 August, Thursday

    Time Temperature Precipitation Wind Pressure Humidity
    00:00 +12°C° 0 mm 2 mps 765 mmHg 76%
    01:00 +10°C° 0 mm 2 mps 765 mmHg 75%
    02:00 +9°C° 0 mm 2 mps 765 mmHg 74%
    03:00 +9°C° 0 mm 2 mps 765 mmHg 75%
    04:00 +9°C° 0 mm 2 mps 765 mmHg 76%
    05:00 +9°C° 0 mm 2 mps 765 mmHg 77%
    06:00 +10°C° 0 mm 2 mps 765 mmHg 73%
    07:00 +13°C° 0 mm 2 mps 765 mmHg 69%
    08:00 +14°C° 0 mm 2 mps 764 mmHg 65%
    09:00 +16°C° 0 mm 3 mps 764 mmHg 59%
    10:00 +18°C° 0 mm 3 mps 764 mmHg 53%
    11:00 +19°C° 0 mm 3 mps 764 mmHg 47%
    12:00 +20°C° 0 mm 3 mps 764 mmHg 45%
    13:00 +20°C° 0 mm 3 mps 763 mmHg 43%
    14:00 +21°C° 0 mm 3 mps 763 mmHg 41%
    15:00 +21°C° 0 mm 3 mps 763 mmHg 45%
    16:00 +20°C° 0 mm 3 mps 762 mmHg 50%
    17:00 +20°C° 0 mm 2 mps 762 mmHg 54%
    18:00 +18°C° 0 mm 2 mps 762 mmHg 59%
    19:00 +16°C° 0 mm 2 mps 762 mmHg 65%
    20:00 +14°C° 0 mm 2 mps 762 mmHg 71%
    21:00 +13°C° 0 mm 2 mps 762 mmHg 73%
    22:00 +12°C° 0 mm 3 mps 762 mmHg 76%
    23:00 +11°C° 0 mm 3 mps 762 mmHg 78%

    30 August, Friday

    Time Temperature Precipitation Wind Pressure Humidity
    00:00 +11°C° 0 mm 3 mps 762 mmHg 81%
    01:00 +10°C° 0 mm 3 mps 762 mmHg 84%
    02:00 +10°C° 0 mm 3 mps 762 mmHg 86%
    03:00 +10°C° 0 mm 3 mps 761 mmHg 86%
    04:00 +9°C° 0 mm 3 mps 761 mmHg 87%
    05:00 +9°C° 0 mm 3 mps 761 mmHg 87%
    06:00 +11°C° 0 mm 3 mps 761 mmHg 82%
    07:00 +12°C° 0 mm 3 mps 761 mmHg 77%
    08:00 +13°C° 0 mm 3 mps 761 mmHg 71%
    09:00 +15°C° 0 mm 4 mps 761 mmHg 67%
    10:00 +18°C° 0 mm 4 mps 761 mmHg 63%
    11:00 +19°C° 0 mm 4 mps 761 mmHg 58%
    12:00 +20°C° 0 mm 4 mps 761 mmHg 57%
    13:00 +21°C° 0 mm 4 mps 761 mmHg 57%
    14:00 +21°C° 0 mm 4 mps 761 mmHg 56%
    15:00 +21°C° 0 mm 4 mps 761 mmHg 59%
    16:00 +21°C° 0 mm 3 mps 761 mmHg 62%
    17:00 +20°C° 0 mm 2 mps 761 mmHg 66%
    18:00 +19°C° 0 mm 2 mps 761 mmHg 68%
    19:00 +18°C° 0 mm 2 mps 761 mmHg 71%
    20:00 +17°C° 0 mm 2 mps 761 mmHg 73%
    21:00 +17°C° 0 mm 2 mps 761 mmHg 75%
    22:00 +16°C° 0 mm 2 mps 762 mmHg 78%
    23:00 +16°C° 0 mm 2 mps 762 mmHg 80%
    Show more